Home   Weather   Sevilla   Past weeks

Flag for Spain Past Weather in Sevilla, Spain — Yesterday and Last 2 Weeks

Now
72 °F

Sunny.


Feels Like: 75 °F
Forecast: 61 / 85 °F
Wind: No wind

Location: Sevilla / San Pablo

Current Time: Oct 1, 2016 at 10:44:07 AM

Latest Report: Oct 1, 2016 at 10:00 AM


Visibility: 10 mi

Pressure: 29.95 "Hg

Humidity: 65%

Dew Point: 59 °F

Location of SevillaLocation

Past Weather in Sevilla — Graph

°F

Sevilla Temperature Yesterday

Maximum temperature yesterday: 90 °F (at 5:30 PM)
Minimum temperature yesterday: 64 °F (at 5:30 AM)
Average temperature yesterday: 77 °F

High & Low Weather Summary for the Past Weeks

 TemperatureHumidityPressure
High93 °F (Sep 27, 5:00 PM)94% (Sep 20, 5:30 AM)30.21 "Hg (Sep 20, 5:30 AM)
Low59 °F (Sep 23, 5:30 AM)15% (Sep 27, 5:30 PM)29.92 "Hg (Sep 20, 6:00 PM)
Average75 °F53%30.06 "Hg
* Reported Sep 16 9:00 AM — Oct 1 9:30 AM, Sevilla, Weather by CustomWeather, © 2016

Note: Actual official high and low records may vary slightly from our data, if they occured in-between our weather recording intervals... More about our weather records

Advertising

Sevilla Weather History for the Previous 24 Hours

Scroll right to see more
 ConditionsComfort  
Time TempWeatherWind HumidityBarometerVisibility
9:30 AM
Sat, Oct 1
68 °FSunny.No wind69%29.95 "Hg10 mi
9:00 AM64 °FSunny.No wind73%29.95 "Hg10 mi
8:30 AM63 °FSunny.2 mph83%29.95 "Hg10 mi
8:00 AM63 °FClear.1 mph83%29.95 "Hg10 mi
7:30 AM64 °FClear.2 mph78%29.95 "Hg10 mi
7:00 AM64 °FClear.1 mph78%29.92 "Hg10 mi
6:30 AM66 °FClear.No wind73%29.92 "Hg10 mi
6:00 AM68 °FPassing clouds.3 mph69%29.92 "HgN/A
5:30 AM68 °FClear.5 mph69%29.92 "Hg10 mi
5:00 AM68 °FClear.2 mph69%29.92 "Hg10 mi
4:30 AM70 °FPassing clouds.5 mph64%29.95 "HgN/A
4:00 AM70 °FClear.5 mph64%29.95 "Hg10 mi
3:30 AM68 °FClear.7 mph64%29.95 "Hg10 mi
3:00 AM70 °FMild.3 mph60%29.95 "HgN/A
2:30 AM70 °FMild.6 mph60%29.95 "HgN/A
2:00 AM70 °FPassing clouds.5 mph60%29.95 "HgN/A
1:30 AM72 °FClear.2 mph53%29.95 "Hg10 mi
1:00 AM72 °FClear.5 mph53%29.98 "Hg10 mi
12:30 AM73 °FClear.7 mph53%29.98 "Hg10 mi
12:00 AM72 °FClear.5 mph57%29.98 "Hg10 mi
11:30 PM
Fri, Sep 30
75 °FClear.5 mph50%29.98 "Hg10 mi
11:00 PM75 °FPassing clouds.5 mph50%29.98 "HgN/A
10:30 PM75 °FPassing clouds.8 mph50%29.95 "HgN/A
10:00 PM77 °FPassing clouds.8 mph44%29.95 "HgN/A
9:30 PM79 °FClear.13 mph39%29.95 "Hg10 mi
9:00 PM79 °FPassing clouds.9 mph39%29.92 "HgN/A
8:30 PM81 °FClear.5 mph30%29.92 "Hg10 mi
8:00 PM84 °FSunny.2 mph25%29.92 "Hg10 mi
7:30 PM86 °FPassing clouds.3 mph20%29.92 "HgN/A
7:00 PM88 °FPassing clouds.5 mph21%29.92 "HgN/A
6:30 PM88 °FPassing clouds.6 mph21%29.92 "HgN/A
6:00 PM88 °FPassing clouds.6 mph22%29.92 "HgN/A
5:30 PM90 °FSunny.2 mph21%29.92 "Hg10 mi
5:00 PM88 °FSunny.6 mph21%29.92 "Hg10 mi
4:30 PM88 °FPassing clouds.8 mph21%29.92 "HgN/A
4:00 PM88 °FPassing clouds.9 mph21%29.92 "HgN/A
3:30 PM86 °FPassing clouds.9 mph22%29.95 "HgN/A
3:00 PM86 °FPassing clouds.8 mph24%29.95 "HgN/A
2:30 PM86 °FPassing clouds.7 mph24%29.98 "HgN/A
2:00 PM84 °FPassing clouds.9 mph25%30.01 "HgN/A
1:30 PM84 °FPassing clouds.10 mph27%30.01 "HgN/A
1:00 PM82 °FPassing clouds.9 mph28%30.04 "HgN/A
12:30 PM81 °FPassing clouds.10 mph30%30.04 "HgN/A
12:00 PM81 °FPassing clouds.10 mph34%30.04 "HgN/A
11:30 AM77 °FPassing clouds.9 mph39%30.04 "HgN/A
11:00 AM75 °FPassing clouds.10 mph41%30.04 "HgN/A
10:30 AM73 °FSunny.10 mph47%30.04 "Hg10 mi
10:00 AM72 °FSunny.13 mph50%30.04 "Hg10 mi
Weather by CustomWeather, © 2016

See weather overviewHow to use our weather pages